Regional Weather Roundup
Issued by NWS

Home | Current Version | Previous Version | Graphics & Text | Print | Product List | Glossary Off
Versions: 1 2 3 4 5 6 7 8 9 10 11 12 13 14 15 16 17 18 19 20 21 22 23 24 25 26 27 28 29 30 31 32 33 34 35 36 37 38 39 40 41 42 43 44 45 46 47 48 49 50

299
ASUS43 KMPX 051801
RWRMN
WEATHER ROUNDUP FOR MINNESOTA
NATIONAL WEATHER SERVICE TWIN CITIES/CHANHASSEN MN
1200 PM CST FRI FEB 05 2016


NOTE: "FAIR" INDICATES FEW OR NO CLOUDS BELOW 12,000 FEET WITH NO
SIGNIFICANT WEATHER AND/OR OBSTRUCTIONS TO VISIBILITY. N/A MEANS
CURRENT SKY AND/OR WEATHER CONDITIONS ARE NOT AVAILABLE.

MNZ060>063-068>070-051900-
   Twin Cities Metro

CITY           SKY/WX    TMP DP  RH WIND       PRES   REMARKS
TWIN CITIES    CLOUDY    22  14  71 SE6       30.30F WCI  14
6HR MIN TEMP:   6; 6HR MAX TEMP:  22;

ST PAUL        CLOUDY    17  12  80 SE8       30.32F WCI   7
CRYSTAL        CLOUDY    23  13  65 S9        30.27F WCI  13
BLAINE         CLOUDY    25  16  68 S9        30.28F WCI  15
LAKEVILLE      CLOUDY    19  16  86 S8        30.29F WCI   9
EDEN PRAIRIE   CLOUDY    22  15  75 S13       30.28F WCI  10
6HR MIN TEMP:   4; 6HR MAX TEMP:  22;

SOUTH ST PAUL  CLOUDY    18  12  77 SE5       30.31F WCI  11
LAKE ELMO      FAIR      19  16  86 S9        30.31F WCI   9
$$
MNZ001>005-007-008-013>017-022>024-027-028-051900-
   Northwest Minnesota

CITY           SKY/WX    TMP DP  RH WIND       PRES   REMARKS
BEMIDJI        SUNNY     22  15  73 S6        30.11F WCI  15
HALLOCK        SUNNY     18  12  79 SW5       30.15S WCI  11
ROSEAU         SUNNY     19  14  79 SW6       30.12F WCI  11
WARROAD        SUNNY     19  12  73 CALM      30.12F
THIEF RVR FALL CLOUDY    19  14  79 W7        30.13S WCI  10
CROOKSTON      SUNNY     19  16  86 W6        30.15F WCI  11
FOSSTON        PTSUNNY   23  18  80 SW12      30.12S WCI  12
DETROIT LAKES  MIX PCPN  27  23  86 SW12      30.13F WCI  16
MOORHEAD       PTSUNNY   23  19  86 S8        30.16S WCI  14
PARK RAPIDS    PTSUNNY   24  17  74 S10       30.12F WCI  14
MAHNOMEN       CLOUDY    23  19  86 SW13      30.13R WCI  11
$$
MNZ006-009>011-018-025>026-051900-
   North Central Minnesota

CITY           SKY/WX    TMP DP  RH WIND       PRES   REMARKS
BAUDETTE       CLOUDY    21  13  71 SW6       30.11F WCI  13
FLAG ISLAND    CLOUDY    14   9  79 SE6       30.11F WCI   5
INTL FALLS     CLOUDY    21  13  71 VRB7      30.11F WCI  12
6HR MIN TEMP:   6; 6HR MAX TEMP:  21; 6HR PCP: TRACE;

WASKISH        PTSUNNY   25  16  68 SW7       30.11F WCI  17
LONGVILLE      SUNNY     25  14  63 S7        30.14F WCI  17
GRAND RAPIDS   CLOUDY    19  10  68 S14       30.15F WCI   6
CRANE LAKE     CLOUDY    16  10  79 S6        30.19F WCI   7
ORR            CLOUDY    19   7  58 SE9       30.11F WCI   9
COOK           CLOUDY    18   9  68 S7        30.16F WCI   8
WALKER         FAIR      23  15  71 S9        30.12F WCI  13
$$
MNZ012-019>021-037-051900-
   Northeast Minnesota

CITY           SKY/WX    TMP DP  RH WIND       PRES   REMARKS
DULUTH         CLOUDY    19   9  65 S15       30.19F WCI   5
6HR MIN TEMP:   2; 6HR MAX TEMP:  19;

ELY            CLOUDY    16   9  73 S8        30.17F WCI   5
HIBBING        CLOUDY    18   9  68 S10       30.15F WCI   6
EVELETH        MOSUNNY   21  12  68 S9        30.17F WCI  11
DULUTH HARBOR  PTSUNNY   21  12  68 SW9       30.27F WCI  11
TWO HARBORS    CLOUDY    21  12  68 SW7       30.21F WCI  13
SILVER BAY     CLOUDY    21  14  73 S8        30.21F WCI  12
GRAND MARAIS     N/A     22  12  65 SW8       30.26F WCI  12
G MARAIS ARPRT CLOUDY    16   3  57 S7        30.16F WCI   6
$$
MNZ029>031-032-039>041-046>048-054>057-064-051900-
   West Central Minnesota

CITY           SKY/WX    TMP DP  RH WIND       PRES   REMARKS
FERGUS FALLS   LGT SNOW  25  18  74 S9        30.20F WCI  15
WHEATON        MIX PCPN  27  21  80 CALM      30.19S
MORRIS         CLOUDY    23  16  74 S10       30.16F WCI  12
ALEXANDRIA     CLOUDY    23  12  62 S14       30.16F WCI  11
ELBOW LAKE     CLOUDY    22  16  78 S9        30.17F WCI  11
WADENA         MIX PCPN  21  18  86 S10       30.15F WCI  10
GLENWOOD       CLOUDY    25  16  68 S20       30.17F WCI  11
APPLETON       CLOUDY    27  18  69 S6        30.18F WCI  20
BENSON         CLOUDY    25  16  68 S5        30.18F WCI  19
ORTONVILLE     CLOUDY    28  18  64 SW6       30.16F WCI  22
MADISON        CLOUDY    28  19  69 S12       30.17F WCI  18
WILLMAR        FAIR      25  18  74 S5        30.22S WCI  19
$$
MNZ033>034-036-042>043-049>051-058-059-051900-
   Central Minnesota

CITY           SKY/WX    TMP DP  RH WIND       PRES   REMARKS
ST CLOUD       CLOUDY    22  16  78 S15       30.23F WCI   9
6HR MIN TEMP:   0; 6HR MAX TEMP:  22;

SAUK CENTRE    FAIR      23  15  71 S15       30.18F WCI  10
PAYNESVILLE    CLOUDY    24  15  70 S13G18    30.21F WCI  12
AITKIN         MOSUNNY   23  12  63 S13       30.16F WCI  11
PINE RIVER     CLOUDY    19  12  73 S9        30.19F WCI   9
BRAINERD       CLOUDY    21  13  71 S13       30.18F WCI   9
STAPLES        CLOUDY    21  14  73 S9        30.17S WCI  11
LONG PRAIRIE   CLOUDY    23  14  68 S12       30.18F WCI  12
LITTLE FALLS   CLOUDY    23  16  74 S8        30.21F WCI  14
LITCHFIELD     CLOUDY    25  18  74 S3        30.23F
BUFFALO        CLOUDY    23  15  72 S7        30.27F WCI  14
MAPLE LAKE     CLOUDY    24  18  77 S8        30.25F WCI  15
$$
MNZ037-044-045-052-053-051900-
   East Central Minnesota

CITY           SKY/WX    TMP DP  RH WIND       PRES   REMARKS
PRINCETON      CLOUDY    23  16  74 SE9       30.25F WCI  13
MORA           CLOUDY    19  12  73 S6        30.27F WCI  11
CAMBRIDGE      CLOUDY    21  12  68 S7        30.26F WCI  13
RUSH CITY      CLOUDY    18  12  76 S9        30.28F WCI   7
MOOSE LAKE     CLOUDY    21  10  63 SW12G20   30.22F WCI   9
HINCKLEY       CLOUDY    19  12  73 S12       30.26F WCI   7
CLOQUET        CLOUDY    19   9  63 S12       30.20F WCI   7
MCGREGOR       PTSUNNY   23  14  68 S10       30.19F WCI  12
$$
MNZ071>073-080-081-089-090-097-098-051900-
   Southwest Minnesota

CITY           SKY/WX    TMP DP  RH WIND       PRES   REMARKS
MONTEVIDEO     CLOUDY    28  16  59 SW13      30.21S WCI  18
GRANITE FALLS  CLOUDY    29  18  62 S15       30.22F WCI  18
CANBY          CLOUDY    29  21  71 SW13G18   30.18F WCI  18
MARSHALL       CLOUDY    25  19  78 SW18      30.18R WCI  11
REDWOOD FALLS  CLOUDY    21  15  78 S14       30.23F WCI   8
OLIVIA         CLOUDY    23  18  80 S13       30.21F WCI  11
PIPESTONE        N/A     25  16  68 S18       30.16F WCI  11
WINDOM         CLOUDY    25  14  63 S15G25    30.22F WCI  12
WORTHINGTON    CLOUDY    23  16  74 S21       30.22F WCI   8
JACKSON        CLOUDY    25  14  63 S16       30.24F WCI  12
TRACY          CLOUDY    27  19  71 S21G30    30.18F HAZE    WCI  14
SLAYTON        CLOUDY    24  20  87 S20G29    30.18F WCI   9
$$
MNZ065>067-074>077-082>085-091>093-051900-
   South Central Minnesota

CITY           SKY/WX    TMP DP  RH WIND       PRES   REMARKS
MANKATO        CLOUDY    19  16  86 S12       30.29F WCI   7
NEW ULM        CLOUDY    19  16  86 S13       30.26F WCI   7
ST JAMES       CLOUDY    21  18  86 S16       30.27F WCI   7
FAIRMONT       CLOUDY    19  14  79 S16       30.26F WCI   5
GLENCOE        CLOUDY    23  18  81 S9        30.26F WCI  13
FARIBAULT      CLOUDY    21  16  79 S10       30.30F WCI  10
OWATONNA       CLOUDY    21  14  73 S12       30.29F WCI   9
WASECA         CLOUDY    21  18  86 S16       30.31F WCI   7
ALBERT LEA     CLOUDY    21  16  79 S10       30.31F WCI  10
$$
MNZ078>079-086>088-094>096-051900-
   Southeast Minnesota

CITY           SKY/WX    TMP DP  RH WIND       PRES   REMARKS
ROCHESTER      CLOUDY    18  14  84 S9        30.31F WCI   7
6HR MIN TEMP:   3; 6HR MAX TEMP:  18;

RED WING       CLOUDY    19  10  68 SE3       30.33F
STANTON        CLOUDY    23  15  72 S8        30.30F WCI  14
DODGE CENTER   CLOUDY    19  14  79 S8        30.30F WCI   9
WINONA         PTSUNNY   21  12  68 CALM      30.37F
AUSTIN         CLOUDY    18  14  86 S8        30.32F WCI   7
PRESTON        CLOUDY    19  12  74 S6        30.33F WCI  11
$$
ABBREVIATIONS USED IN REMARKS
   TC - TEMPERATURES IN CELSIUS
  WCI - WIND CHILL INDEX
   HX - HEAT INDEX
  VSB - VISIBILITY
$$




USA.gov is the U.S. government's official web portal to all federal, state and local government web resources and services.